Tracking 30692 objects as of 16-Jun-2025
HD Live streaming from Space Station
objects crossing your sky now

STARLINK-31193

Track STARLINK-31193 now!
10-day predictions
STARLINK-31193 is classified as:


NORAD ID: 58797
Int'l Code: 2024-012L
Perigee: 493.9 km
Apogee: 496.5 km
Inclination: 43.0 °
Period: 94.4 minutes
Semi major axis: 6866 km
RCS: Unknown
Launch date: January 15, 2024
Source: United States (US)
Launch site: AIR FORCE EASTERN TEST RANGE (AFETR)
Your satellite tracking list
Your tracking list is empty




NASA's NSSDC Master Catalog

Two Line Element Set (TLE):
1 58797U 24012L   25167.23043598 -.00000359  00000-0 -38506-5 0  9996
2 58797  43.0087 229.2880 0001886 281.3456  78.7183 15.25900506 80491
Source of the keplerian elements: AFSPC